| time (UTC) | temp C | wind direction | speed KPH | gust KPH | rain 1hr cm | rain 24hr cm | rain mn cm | humidity % | barometer mb |
| 20260505041504 | 21 | 126 | 9.7 | 19.3 | 0.00 | 0.00 | 0.00 | 49 | 1021.5 |
| 20260505041004 | 21 | 130 | 9.7 | 20.9 | 0.00 | 0.00 | 0.00 | 48 | 1021.5 |
| 20260505040504 | 21 | 129 | 9.7 | 19.3 | 0.00 | 0.00 | 0.00 | 49 | 1021.6 |
| 20260505035506 | 21 | 154 | 11.3 | 20.9 | 0.00 | 0.00 | 0.00 | 50 | 1021.5 |
| 20260505035004 | 21 | 140 | 9.7 | 20.9 | 0.00 | 0.00 | 0.00 | 50 | 1021.6 |
| 20260505034505 | 21 | 135 | 6.4 | 19.3 | 0.00 | 0.00 | 0.00 | 49 | 1021.6 |
| 20260505033505 | 21 | 164 | 8.0 | 20.9 | 0.00 | 0.00 | 0.00 | 47 | 1021.5 |
| 20260505033006 | 21 | 127 | 8.0 | 20.9 | 0.00 | 0.00 | 0.00 | 45 | 1021.3 |
| 20260505032505 | 21 | 132 | 8.0 | 14.5 | 0.00 | 0.00 | 0.00 | 48 | 1021.2 |
| 20260505032004 | 21 | 115 | 8.0 | 16.1 | 0.00 | 0.00 | 0.00 | 46 | 1021.2 |
| 20260505031503 | 21 | 111 | 9.7 | 19.3 | 0.00 | 0.00 | 0.00 | 45 | 1021.3 |
| 20260505031006 | 21 | 128 | 8.0 | 14.5 | 0.00 | 0.00 | 0.00 | 45 | 1021.3 |
| 20260505030504 | 21 | 136 | 6.4 | 14.5 | 0.00 | 0.00 | 0.00 | 50 | 1021.2 |
| 20260505030004 | 21 | 126 | 9.7 | 14.5 | 0.00 | 0.00 | 0.00 | 49 | 1021.4 |
| 20260505025504 | 21 | 135 | 11.3 | 32.2 | 0.00 | 0.00 | 0.00 | 47 | 1021.2 |
| 20260505025005 | 21 | 151 | 4.8 | 20.9 | 0.00 | 0.00 | 0.00 | 49 | 1021.2 |
| 20260505024504 | 21 | 122 | 8.0 | 20.9 | 0.00 | 0.00 | 0.00 | 47 | 1021.1 |
| 20260505024006 | 21 | 146 | 8.0 | 14.5 | 0.00 | 0.00 | 0.00 | 47 | 1021.2 |
| 20260505023506 | 21 | 139 | 9.7 | 19.3 | 0.00 | 0.00 | 0.00 | 45 | 1021.2 |
| 20260505023004 | 21 | 144 | 9.7 | 19.3 | 0.00 | 0.00 | 0.00 | 46 | 1021.2 |
| 20260505022504 | 20 | 140 | 9.7 | 20.9 | 0.00 | 0.00 | 0.00 | 46 | 1021.1 |
| 20260505022004 | 21 | 142 | 9.7 | 19.3 | 0.00 | 0.00 | 0.00 | 46 | 1021.1 |
| 20260505021505 | 20 | 139 | 8.0 | 14.5 | 0.00 | 0.00 | 0.00 | 48 | 1021.0 |
| 20260505020505 | 20 | 137 | 8.0 | 19.3 | 0.00 | 0.00 | 0.00 | 52 | 1021.0 |
| 20260505020004 | 21 | 153 | 9.7 | 19.3 | 0.00 | 0.00 | 0.00 | 50 | 1021.0 |
| 20260505015504 | 20 | 131 | 9.7 | 19.3 | 0.00 | 0.00 | 0.00 | 50 | 1020.9 |
| 20260505015004 | 20 | 145 | 9.7 | 19.3 | 0.00 | 0.00 | 0.00 | 48 | 1020.8 |
| 20260505014504 | 20 | 130 | 11.3 | 16.1 | 0.00 | 0.00 | 0.00 | 48 | 1020.8 |
| 20260505014006 | 20 | 125 | 9.7 | 16.1 | 0.00 | 0.00 | 0.00 | 49 | 1020.9 |
| 20260505013504 | 21 | 129 | 9.7 | 14.5 | 0.00 | 0.00 | 0.00 | 52 | 1020.9 |
| 20260505013004 | 21 | 135 | 6.4 | 16.1 | 0.00 | 0.00 | 0.00 | 53 | 1021.1 |
| 20260505012004 | 21 | 127 | 9.7 | 19.3 | 0.00 | 0.00 | 0.00 | 48 | 1021.0 |
| 20260505011504 | 21 | 132 | 8.0 | 14.5 | 0.00 | 0.00 | 0.00 | 49 | 1021.0 |
| 20260505010504 | 21 | 126 | 9.7 | 19.3 | 0.00 | 0.00 | 0.00 | 48 | 1021.1 |
| 20260505010005 | 21 | 156 | 6.4 | 16.1 | 0.00 | 0.00 | 0.00 | 48 | 1021.1 |
| 20260505005506 | 21 | 130 | 4.8 | 12.9 | 0.00 | 0.00 | 0.00 | 49 | 1020.9 |
| 20260505005005 | 21 | 129 | 8.0 | 16.1 | 0.00 | 0.00 | 0.00 | 48 | 1021.0 |
| 20260505004504 | 21 | 118 | 8.0 | 16.1 | 0.00 | 0.00 | 0.00 | 47 | 1021.0 |
| 20260505004004 | 21 | 128 | 4.8 | 14.5 | 0.00 | 0.00 | 0.00 | 49 | 1020.9 |
| 20260505003504 | 21 | 131 | 6.4 | 16.1 | 0.00 | 0.00 | 0.00 | 49 | 1020.9 |
| 20260505003006 | 20 | 125 | 4.8 | 12.9 | 0.00 | 0.00 | 0.00 | 49 | 1020.9 |
| 20260505002504 | 20 | 223 | 3.2 | 12.9 | 0.00 | 0.00 | 0.00 | 49 | 1020.8 |
| 20260505002004 | 20 | 82 | 3.2 | 4.8 | 0.00 | 0.00 | 0.00 | 49 | 1020.8 |
| 20260505001505 | 20 | 154 | 6.4 | 11.3 | 0.00 | 0.00 | 0.00 | 49 | 1020.8 |
| 20260505001005 | 20 | 139 | 4.8 | 9.7 | 0.00 | 0.00 | 0.00 | 49 | 1020.8 |
| 20260505000504 | 20 | 98 | 1.6 | 4.8 | 0.00 | 0.00 | 0.00 | 49 | 1020.6 |
| 20260505000005 | 20 | 52 | 1.6 | 4.8 | 0.00 | 0.00 | 0.00 | 48 | 1020.6 |
| 20260504235504 | 20 | 120 | 6.4 | 12.9 | 0.00 | 0.00 | 0.00 | 48 | 1020.4 |
| 20260504235004 | 19 | 108 | 3.2 | 9.7 | 0.00 | 0.00 | 0.00 | 50 | 1020.3 |
| 20260504234504 | 18 | 117 | 4.8 | 9.7 | 0.00 | 0.00 | 0.00 | 52 | 1020.3 |
| 20260504234005 | 17 | 107 | 1.6 | 4.8 | 0.00 | 0.00 | 0.00 | 54 | 1020.3 |
| 20260504233505 | 17 | 48 | 1.6 | 8.0 | 0.00 | 0.00 | 0.00 | 54 | 1020.3 |
| 20260504233004 | 17 | 342 | 4.8 | 8.0 | 0.00 | 0.00 | 0.00 | 54 | 1020.3 |
| 20260504232504 | 16 | 311 | 9.7 | 12.9 | 0.00 | 0.00 | 0.00 | 54 | 1020.2 |
| 20260504231505 | 16 | 359 | 4.8 | 8.0 | 0.00 | 0.00 | 0.00 | 54 | 1020.2 |
| 20260504231004 | 16 | 4 | 4.8 | 9.7 | 0.00 | 0.00 | 0.00 | 54 | 1020.1 |
| 20260504230506 | 16 | 334 | 4.8 | 11.3 | 0.00 | 0.00 | 0.00 | 55 | 1020.0 |
| 20260504230004 | 16 | 329 | 4.8 | 8.0 | 0.00 | 0.00 | 0.00 | 54 | 1020.0 |
| 20260504225507 | 16 | 348 | 4.8 | 8.0 | 0.00 | 0.00 | 0.00 | 55 | 1020.0 |
| 20260504225005 | 15 | 358 | 6.4 | 8.0 | 0.00 | 0.00 | 0.00 | 56 | 1019.9 |
| 20260504224504 | 15 | 350 | 8.0 | 9.7 | 0.00 | 0.00 | 0.00 | 56 | 1019.9 |
| 20260504224005 | 15 | 349 | 6.4 | 9.7 | 0.00 | 0.00 | 0.00 | 56 | 1019.8 |
| 20260504223506 | 15 | 341 | 4.8 | 12.9 | 0.00 | 0.00 | 0.00 | 58 | 1019.8 |
| 20260504223005 | 15 | 334 | 8.0 | 8.0 | 0.00 | 0.00 | 0.00 | 57 | 1019.8 |
| 20260504222504 | 15 | 8 | 3.2 | 4.8 | 0.00 | 0.00 | 0.00 | 57 | 1019.7 |
| 20260504222007 | 14 | 351 | 3.2 | 12.9 | 0.00 | 0.00 | 0.00 | 59 | 1019.5 |
| 20260504221504 | 14 | 328 | 6.4 | 12.9 | 0.00 | 0.00 | 0.00 | 58 | 1019.4 |
| 20260504221004 | 14 | 342 | 3.2 | 9.7 | 0.00 | 0.00 | 0.00 | 59 | 1019.0 |
| 20260504220504 | 13 | 349 | 4.8 | 12.9 | 0.00 | 0.00 | 0.00 | 59 | 1019.0 |
| 20260504220005 | 13 | 329 | 4.8 | 4.8 | 0.00 | 0.00 | 0.00 | 59 | 1018.9 |
| 20260504215004 | 13 | 330 | 4.8 | 8.0 | 0.00 | 0.00 | 0.00 | 60 | 1018.7 |
| 20260504214505 | 13 | 326 | 6.4 | 9.7 | 0.00 | 0.00 | 0.00 | 60 | 1018.6 |
| 20260504214004 | 13 | 337 | 4.8 | 8.0 | 0.00 | 0.00 | 0.00 | 62 | 1018.5 |
| 20260504213504 | 13 | 333 | 4.8 | 8.0 | 0.00 | 0.00 | 0.00 | 61 | 1018.5 |
| 20260504213004 | 13 | 327 | 1.6 | 4.8 | 0.00 | 0.00 | 0.00 | 63 | 1018.4 |
| 20260504211505 | 12 | 314 | 6.4 | 11.3 | 0.00 | 0.00 | 0.00 | 65 | 1017.9 |
| 20260504211004 | 12 | 309 | 4.8 | 8.0 | 0.00 | 0.00 | 0.00 | 65 | 1017.9 |
| 20260504210505 | 12 | 304 | 3.2 | 4.8 | 0.00 | 0.00 | 0.00 | 66 | 1017.9 |
| 20260504210004 | 12 | 283 | 4.8 | 11.3 | 0.00 | 0.00 | 0.00 | 66 | 1017.7 |
| 20260504205504 | 12 | 326 | 6.4 | 11.3 | 0.00 | 0.00 | 0.00 | 66 | 1017.7 |
| 20260504205004 | 12 | 321 | 6.4 | 11.3 | 0.00 | 0.00 | 0.00 | 65 | 1017.5 |
| 20260504204505 | 12 | 329 | 8.0 | 12.9 | 0.00 | 0.00 | 0.00 | 65 | 1017.5 |
| 20260504204004 | 12 | 337 | 4.8 | 12.9 | 0.00 | 0.00 | 0.00 | 65 | 1017.6 |
| 20260504203504 | 12 | 318 | 8.0 | 12.9 | 0.00 | 0.03 | 0.00 | 66 | 1017.2 |
| 20260504202005 | 11 | 285 | 4.8 | 9.7 | 0.00 | 0.03 | 0.00 | 65 | 1016.8 |
| 20260504201504 | 11 | 335 | 4.8 | 11.3 | 0.00 | 0.03 | 0.00 | 65 | 1016.8 |
| 20260504201003 | 12 | 320 | 8.0 | 14.5 | 0.00 | 0.03 | 0.00 | 64 | 1016.6 |
| 20260504200504 | 12 | 323 | 11.3 | 19.3 | 0.00 | 0.03 | 0.00 | 64 | 1016.5 |
| 20260504200004 | 12 | 326 | 9.7 | 16.1 | 0.00 | 0.05 | 0.00 | 63 | 1016.3 |
| 20260504195504 | 12 | 324 | 11.3 | 19.3 | 0.00 | 0.05 | 0.00 | 63 | 1016.2 |
| 20260504195005 | 12 | 335 | 11.3 | 19.3 | 0.00 | 0.08 | 0.00 | 63 | 1016.0 |
| 20260504194505 | 12 | 321 | 14.5 | 19.3 | 0.00 | 0.10 | 0.00 | 63 | 1016.0 |
| 20260504194004 | 12 | 290 | 11.3 | 19.3 | 0.00 | 0.13 | 0.00 | 64 | 1015.9 |
| 20260504193004 | 12 | 321 | 12.9 | 20.9 | 0.00 | 0.20 | 0.00 | 63 | 1016.0 |
| 20260504192504 | 12 | 317 | 9.7 | 16.1 | 0.00 | 0.20 | 0.00 | 64 | 1015.7 |
| 20260504192004 | 12 | 309 | 9.7 | 16.1 | 0.00 | 0.23 | 0.00 | 64 | 1015.6 |
| 20260504191505 | 12 | 310 | 11.3 | 19.3 | 0.00 | 0.23 | 0.00 | 64 | 1015.5 |
| 20260504191006 | 12 | 310 | 12.9 | 20.9 | 0.00 | 0.23 | 0.00 | 64 | 1015.4 |
| 20260504190505 | 12 | 323 | 14.5 | 24.1 | 0.00 | 0.23 | 0.00 | 64 | 1015.4 |
| 20260504190004 | 12 | 336 | 16.1 | 24.1 | 0.00 | 0.25 | 0.00 | 63 | 1015.0 |
| 20260504185503 | 12 | 303 | 16.1 | 27.4 | 0.00 | 0.30 | 0.00 | 63 | 1015.0 |
| 20260504185004 | 12 | 311 | 16.1 | 25.7 | 0.00 | 0.38 | 0.00 | 63 | 1015.0 |
| 20260504184504 | 12 | 322 | 16.1 | 32.2 | 0.00 | 0.48 | 0.00 | 64 | 1014.8 |
| 20260504184005 | 12 | 305 | 16.1 | 20.9 | 0.00 | 0.58 | 0.00 | 64 | 1014.6 |
| 20260504183506 | 12 | 300 | 17.7 | 27.4 | 0.00 | 0.61 | 0.00 | 63 | 1014.6 |
| 20260504183004 | 12 | 311 | 14.5 | 24.1 | 0.00 | 0.61 | 0.00 | 63 | 1014.6 |
| 20260504182504 | 12 | 318 | 12.9 | 22.5 | 0.00 | 0.61 | 0.00 | 63 | 1014.7 |
| 20260504182006 | 12 | 326 | 14.5 | 20.9 | 0.00 | 0.61 | 0.00 | 63 | 1014.7 |
| 20260504181506 | 13 | 296 | 11.3 | 25.7 | 0.00 | 0.61 | 0.00 | 63 | 1014.8 |
| 20260504181005 | 12 | 320 | 12.9 | 20.9 | 0.00 | 0.61 | 0.00 | 63 | 1014.6 |
| 20260504180504 | 13 | 308 | 11.3 | 19.3 | 0.00 | 0.61 | 0.00 | 63 | 1014.6 |
| 20260504180004 | 13 | 313 | 12.9 | 24.1 | 0.00 | 0.61 | 0.00 | 62 | 1014.3 |
| 20260504175504 | 13 | 333 | 11.3 | 19.3 | 0.00 | 0.61 | 0.00 | 62 | 1014.4 |
| 20260504174504 | 13 | 322 | 16.1 | 24.1 | 0.00 | 0.61 | 0.00 | 61 | 1014.4 |
| 20260504174004 | 13 | 316 | 14.5 | 24.1 | 0.00 | 0.61 | 0.00 | 61 | 1014.4 |
| 20260504173504 | 13 | 305 | 14.5 | 27.4 | 0.00 | 0.61 | 0.00 | 61 | 1014.4 |
| 20260504173004 | 13 | 318 | 16.1 | 24.1 | 0.00 | 0.61 | 0.00 | 61 | 1014.3 |
| 20260504172004 | 13 | 327 | 12.9 | 29.0 | 0.00 | 0.61 | 0.00 | 62 | 1013.9 |
| 20260504171505 | 13 | 325 | 19.3 | 29.0 | 0.00 | 0.61 | 0.00 | 61 | 1013.7 |
| 20260504171004 | 13 | 317 | 19.3 | 27.4 | 0.00 | 0.61 | 0.00 | 61 | 1013.6 |
| 20260504170505 | 13 | 307 | 20.9 | 29.0 | 0.00 | 0.61 | 0.00 | 62 | 1013.6 |
| 20260504150504 | 14 | 310 | 16.1 | 29.0 | 0.00 | 1.04 | 0.00 | 61 | 1012.9 |
| 20260504141004 | 14 | 325 | 17.7 | 32.2 | 0.00 | 2.59 | 1.09 | 59 | 1012.4 |
| 20260504140504 | 14 | 326 | 19.3 | 25.7 | 0.00 | 2.72 | 1.09 | 60 | 1012.5 |
| 20260504130504 | 15 | 328 | 20.9 | 32.2 | 0.00 | 3.81 | 1.09 | 59 | 1011.9 |